Orbital Elements at Epoch 2459000.5 (2020-May-31.0) TDB
Reference: JPL 29 (heliocentric ecliptic J2000)
Element | Value | Uncertainty (1-sigma) | Units |
e | .1174919519975583 | 2.8347e-08 | |
a | 2.630476577402064 | 9.3247e-09 | au |
q | 2.321416749639239 | 7.7829e-08 | au |
i | 2.456175065073979 | 3.012e-06 | deg |
node | 107.9840060702981 | 8.796e-05 | deg |
peri | 324.4501583915439 | 8.9716e-05 | deg |
M | 259.4732924118828 | 1.8533e-05 | deg |
tp | 2459435.640036293795 (2021-Aug-09.14003629) | 8.118e-05 | TDB |
period | 1558.296464931506 4.27 | 8.2859e-06 2.269e-08 | d yr |
n | .2310215084880036 | 1.2284e-09 | deg/d |
Q | 2.939536405164889 | 1.042e-08 | au |
|
| | Orbit Determination Parameters
Additional Information
|